User: anonymous   Login
Location: Theydon Bois
(51.6750°N, 0.1050°E)
Time: 17:20:04
(UTC+01:00)
Language:

Cosmos 1371 Rocket - Orbit

View from above orbital plane
View from above orbital plane
View from above satellite
View from above satellite

Ground track
Ground track

The orbit data is extracted from the following two-line orbital elements,

1 13242U 82051B   17293.15036072 -.00000012  00000-0  48005-5 0  9990
2 13242  74.0419 123.6063 0025920 293.2658 167.9746 14.35884936851558
Epoch (UTC): 20 October 2017 03:36:31
Eccentricity: 0.0025920
inclination: 74.0419°
perigee height: 753 km
apogee height: 790 km
right ascension of ascending node: 123.6063°
argument of perigee: 293.2658°
revolutions per day: 14.35884936
mean anomaly at epoch: 167.9746°
orbit number at epoch: 85155

The dashed part of the orbit path shows where the satellite is in the earth's shadow,  

DLR